Lapse_Rate
4.5 4.7 4.8 4.5 5.3 5.1 5.2 5.6 5.7 5.6 5.3 5.4 5.6 5.8 6.4 6.5 6.4 6.2 6.1 6.2 6.3 6.3 6.3 6.2 6.0 5.9 6.0 6.0 6.0 6.0 6.0 6.0 6.0 5.9 5.9 5.9 5.8 5.7 5.6 5.6 5.7 5.8 5.7
4.1 4.4 4.2 4.3 4.8 5.1 5.3 5.6 5.8 5.6 5.8 5.8 5.7 5.8 6.6 6.6 6.3 6.1 6.1 6.2 6.3 6.2 6.1 5.9 5.9 5.8 5.8 5.8 5.8 6.0 6.0 6.0 5.7 5.7 5.8 5.8 5.7 5.7 5.6 5.8 5.9 5.9 6.0
4.5 4.4 4.5 4.5 4.9 5.2 5.2 5.8 5.9 5.9 6.0 6.0 6.1 6.4 6.5 6.5 6.2 6.2 6.3 6.3 6.2 6.0 6.0 5.9 5.9 5.9 5.9 5.7 5.7 5.8 5.8 5.9 5.8 5.6 5.6 5.5 5.5 5.5 5.6 5.8 5.8 5.9 6.0
4.4 4.6 4.3 4.5 4.9 5.1 5.4 5.9 6.2 5.9 6.1 6.5 6.5 6.4 6.3 6.2 6.2 6.2 6.3 6.2 6.1 6.0 6.0 5.9 5.8 5.8 5.9 5.9 6.0 6.1 6.2 6.1 5.8 5.8 5.6 5.5 5.4 5.4 5.5 5.6 5.7 5.9 6.1
4.5 4.4 4.3 4.3 4.6 5.3 5.3 6.0 5.9 6.3 6.5 6.8 6.4 6.3 6.2 6.3 6.4 6.4 6.3 6.1 5.9 5.8 5.7 5.7 5.6 5.6 5.7 5.8 5.9 6.0 5.9 5.9 6.0 5.9 5.7 5.5 5.5 5.5 5.5 5.6 5.9 6.1 6.2
4.3 4.3 4.2 4.3 4.6 5.1 5.6 5.8 5.9 6.2 6.5 6.5 6.5 6.3 6.2 6.2 6.1 6.1 6.0 5.8 5.6 5.4 5.4 5.3 5.4 5.6 5.6 5.8 5.7 5.8 5.7 5.6 5.8 5.6 5.7 5.5 5.5 5.6 5.6 5.7 5.8 6.0 6.0
4.6 4.6 4.7 4.6 4.9 5.5 5.6 6.0 6.4 6.3 6.4 6.3 6.4 6.3 6.0 6.1 6.0 5.7 5.5 5.5 5.3 5.3 5.4 5.4 5.0 5.3 5.6 5.7 5.8 5.6 5.3 5.4 5.4 5.5 5.5 5.6 5.7 5.7 5.8 5.8 5.8 5.7 5.7
4.7 4.5 4.5 4.8 5.1 5.8 5.9 6.2 6.2 6.2 6.1 6.0 6.3 6.1 6.0 5.9 5.8 5.5 5.3 5.2 5.0 5.2 5.3 5.4 4.9 5.2 5.4 5.7 5.5 5.4 5.6 5.5 5.3 5.1 5.3 5.6 5.8 5.7 5.7 5.5 5.7 5.8 5.9
4.7 4.6 4.9 5.1 5.4 5.8 6.2 6.4 6.2 6.0 5.9 6.0 6.0 5.9 6.1 6.0 5.7 5.7 5.7 5.5 5.3 5.5 5.4 5.1 5.4 5.5 5.5 5.6 5.7 5.3 5.4 5.7 5.5 5.4 5.5 5.5 5.8 5.7 5.6 5.8 5.9 5.9 5.9
4.9 5.0 5.1 5.3 5.8 6.3 6.3 6.1 6.0 6.1 5.7 6.0 6.1 6.0 5.8 5.7 5.5 6.0 5.7 5.6 5.3 5.3 5.4 5.2 5.2 5.3 5.4 5.4 5.0 4.7 5.0 4.9 5.9 5.8 5.5 5.6 5.6 5.7 5.7 5.8 5.9 6.0 6.0
5.4 5.1 5.1 5.6 5.8 6.0 6.1 6.1 6.2 5.8 6.1 6.2 6.1 6.0 5.8 5.6 5.5 5.4 5.3 5.5 5.1 5.4 5.4 5.4 5.1 5.3 5.3 5.1 4.8 4.7 4.9 5.4 5.1 4.9 5.4 5.1 4.9 5.1 5.3 5.7 5.7 5.7 5.8
5.4 5.3 5.5 5.4 5.3 5.6 5.6 5.9 6.0 5.8 6.2 6.0 6.1 5.9 5.8 5.6 5.4 5.4 5.4 5.5 5.6 5.5 5.4 5.5 4.9 5.2 5.1 4.8 4.5 5.0 5.2 4.9 4.3 4.5 4.7 4.8 4.8 5.0 4.8 4.4 4.4 4.4 4.7
6.6 6.2 6.0 5.7 5.4 5.7 5.8 5.6 5.3 5.5 5.9 6.2 6.1 6.0 5.9 5.8 5.7 5.5 5.3 5.5 5.4 5.3 5.4 5.2 4.7 4.9 4.7 4.6 5.0 5.2 5.1 4.9 4.9 4.9 5.0 5.1 5.2 5.3 5.1 4.8 4.8 4.7 4.8
6.5 6.4 6.1 5.9 5.6 5.6 5.5 5.6 5.7 6.0 6.1 5.9 6.1 6.1 6.0 5.9 5.6 5.6 5.5 5.5 5.3 5.5 5.4 5.4 5.1 5.1 4.9 4.9 5.0 4.9 4.9 5.0 5.1 5.3 5.4 5.4 5.4 5.5 5.4 5.3 5.2 4.9 5.0
6.6 6.2 5.9 6.0 5.9 5.7 5.9 5.8 5.7 6.1 6.0 6.1 6.3 6.3 6.3 6.2 5.7 5.6 5.4 5.6 5.6 5.7 5.7 5.4 5.2 5.2 5.1 5.1 5.2 5.0 4.9 5.1 5.2 5.3 5.3 5.3 5.3 5.3 5.2 5.2 5.3 5.3 5.0
6.4 6.3 6.2 6.1 6.1 6.1 6.0 6.1 6.0 6.1 5.8 5.9 6.1 6.3 6.4 6.1 5.7 5.7 5.3 5.4 5.4 5.5 5.5 5.2 5.2 5.3 5.2 5.4 5.4 5.3 5.4 5.3 5.3 5.5 5.5 5.4 5.3 5.3 5.2 5.3 5.4 5.4 5.4
6.6 6.3 6.0 5.8 6.0 5.8 6.1 5.8 6.1 6.1 5.9 6.1 6.2 6.6 6.3 6.0 5.8 5.6 5.6 5.4 5.3 5.4 5.1 5.0 4.9 4.9 5.2 5.4 5.5 5.5 5.5 5.5 5.6 5.4 5.3 5.3 5.3 5.2 5.1 5.3 5.4 5.4 5.3
7.0 6.2 5.9 5.7 5.9 5.7 5.6 5.7 6.2 6.0 6.2 6.3 6.4 6.5 6.4 5.9 6.1 5.6 5.6 5.4 5.7 5.4 5.3 5.2 5.2 5.4 5.6 5.5 5.4 5.4 5.4 5.4 5.4 5.5 5.4 5.4 5.2 5.2 5.2 5.4 5.6 5.6 5.3
6.2 6.3 6.3 5.9 6.7 6.2 6.2 6.3 6.4 6.4 6.3 6.5 6.3 6.2 6.0 6.0 5.7 5.6 5.7 5.5 5.7 5.3 5.6 5.1 5.1 5.3 5.5 5.5 5.5 5.4 5.2 5.4 5.2 5.2 5.2 5.1 5.1 5.3 5.2 5.5 5.4 5.3 5.1
5.9 5.7 5.9 6.7 6.4 6.1 6.1 6.3 6.6 6.8 6.7 6.4 6.3 6.0 6.2 6.0 5.6 5.5 5.3 5.2 5.6 5.2 5.5 5.3 5.0 5.4 5.3 5.3 5.3 5.2 5.3 5.1 5.1 5.2 5.2 5.2 5.3 5.2 5.5 5.2 5.1 5.0 4.8
6.5 6.6 6.3 6.6 6.5 6.7 6.7 6.9 6.9 6.7 6.6 6.4 6.2 6.1 5.9 5.9 5.9 5.7 5.3 5.2 5.8 5.7 5.4 5.2 5.2 5.4 5.2 5.1 5.0 5.0 4.9 5.0 5.1 5.0 5.1 5.2 5.2 5.2 5.3 4.9 4.8 4.5 4.8
6.8 6.8 6.7 7.0 6.9 7.2 7.1 7.2 7.2 7.0 6.6 6.1 6.1 6.3 6.3 5.9 6.0 5.7 5.5 5.8 5.7 5.4 5.4 5.4 5.4 5.3 5.1 5.0 4.8 4.8 4.7 4.6 4.8 5.1 4.9 5.2 5.0 4.9 4.7 4.6 4.5 4.6 5.1
6.9 7.0 7.1 7.1 7.0 7.1 7.3 7.4 7.2 6.5 6.4 6.2 6.1 5.9 6.1 5.9 5.6 5.8 5.5 5.5 5.5 5.5 5.6 5.3 5.3 5.1 5.0 4.8 4.6 4.7 4.6 4.4 4.6 4.8 4.8 4.7 4.7 4.7 4.5 4.6 4.5 5.0 5.4
6.8 6.7 6.7 6.8 7.0 7.2 7.3 7.2 6.8 6.4 6.3 6.1 6.1 6.2 6.3 5.8 5.4 5.8 5.5 5.4 5.3 5.5 5.2 5.2 5.0 4.9 4.7 4.6 4.3 4.1 4.2 4.1 4.4 4.6 4.7 4.4 4.6 4.6 4.5 4.6 4.7 5.4 5.7
6.9 6.7 6.8 6.9 7.1 7.1 7.1 6.7 6.3 6.2 6.2 6.1 6.4 6.4 6.2 5.6 5.4 5.5 5.4 5.3 5.2 5.1 5.0 4.8 4.7 4.4 4.0 4.0 4.1 3.9 3.8 4.0 4.2 4.6 5.1 4.4 4.6 4.6 4.6 5.1 5.2 5.6 6.2
6.8 6.8 6.7 6.7 6.8 6.9 6.6 6.0 6.2 6.1 6.2 6.4 6.5 6.4 6.0 5.8 5.7 5.5 5.4 5.3 5.0 4.9 4.7 4.3 4.1 3.5 3.4 3.9 3.9 3.7 4.0 4.3 4.5 4.6 5.0 4.5 4.7 4.5 4.6 5.5 5.8 6.3 6.8
Wind_Speed
9 13 10 12 14 17 15 12 15 16 15 15 16 17 17 16 16 15 15 16 16 16 16 17 16 15 13 12 11 10 9 10 9 10 10 10 11 11 10 10 10 11 11
13 11 9 9 10 15 16 14 15 13 11 14 12 15 16 16 17 16 16 17 18 17 16 15 14 13 11 10 9 9 8 8 8 8 8 8 9 8 8 7 8 8 9
16 13 9 6 10 14 12 17 15 16 10 8 6 11 15 17 17 17 17 17 18 17 15 15 14 13 11 10 9 8 8 8 7 7 7 6 7 7 6 6 6 6 7
17 14 9 6 13 11 8 11 6 4 4 4 3 3 6 11 12 15 17 17 17 16 16 15 14 13 13 12 12 10 9 9 8 7 7 6 7 5 4 3 4 5 6
17 15 10 10 14 9 6 7 2 3 4 3 4 3 3 3 5 8 10 13 16 17 18 18 17 16 14 13 12 11 10 9 9 8 7 6 7 6 3 1 2 4 6
19 12 10 9 11 5 3 4 3 1 3 4 3 3 3 4 6 7 9 12 16 17 18 18 17 18 17 16 14 12 11 10 10 9 10 8 8 6 4 1 1 3 5
16 13 9 10 10 5 5 4 3 4 1 3 3 2 2 4 5 5 9 9 12 16 17 19 19 19 20 20 17 14 13 13 13 13 13 12 10 9 8 6 5 4 5
17 13 11 6 7 3 4 5 4 2 2 4 3 2 1 3 3 5 5 5 9 11 13 16 18 20 20 20 19 18 17 16 16 15 15 15 15 14 12 10 9 9 8
11 14 12 8 7 5 5 5 6 6 4 3 3 3 1 4 1 0 4 4 5 5 9 11 13 15 19 21 21 20 23 21 19 18 18 18 19 19 17 16 14 12 12
12 14 14 13 8 6 5 6 5 4 4 4 1 2 0 2 3 2 1 2 4 6 3 8 12 18 20 19 20 21 22 22 24 23 23 21 21 22 21 20 18 16 15
13 15 15 11 6 7 6 7 5 6 4 3 3 2 1 0 1 2 5 2 2 2 6 8 12 12 14 17 17 20 22 23 25 25 26 27 25 25 24 23 22 21 19
4 7 6 7 8 6 6 6 6 7 8 6 5 5 5 3 3 3 3 3 3 2 3 4 5 9 9 12 13 12 12 17 23 25 24 28 30 29 28 27 26 26 25
3 5 5 6 4 9 10 9 7 7 6 7 8 6 4 5 3 2 3 2 3 1 1 1 2 6 5 4 4 5 10 14 17 21 22 25 29 31 32 29 29 30 30
3 5 6 6 7 9 8 7 3 4 5 7 8 8 6 5 4 3 3 4 2 3 1 4 2 4 2 3 6 7 9 14 17 21 23 22 24 26 29 31 33 34 35
5 6 6 7 7 8 8 7 6 7 6 6 7 6 4 2 3 3 3 3 3 3 3 2 2 1 4 6 10 10 12 15 19 22 24 24 25 27 30 33 35 37 38
7 7 8 7 8 8 8 9 8 6 9 5 5 7 4 3 4 3 3 3 3 3 3 3 3 2 9 10 13 12 15 16 19 21 24 26 28 29 31 33 35 38 37
9 9 8 8 11 10 9 9 7 7 9 7 5 7 6 6 5 5 4 2 3 2 3 2 2 1 2 3 10 13 12 13 14 19 21 23 26 29 32 34 34 34 35
9 11 11 11 10 10 9 9 8 9 10 10 9 8 7 6 7 6 4 4 2 3 2 3 1 1 1 1 3 6 12 13 14 16 20 22 25 27 29 32 33 34 34
13 13 12 11 10 10 10 8 9 10 10 10 10 10 10 8 7 4 3 4 2 3 2 2 0 1 2 0 2 4 5 9 11 18 20 22 24 26 28 30 32 33 33
14 10 10 10 8 7 6 6 8 8 7 6 7 8 8 7 6 5 4 4 3 4 2 2 1 3 2 2 1 2 5 5 7 16 19 20 23 23 26 27 28 31 33
12 12 10 7 7 8 7 10 9 9 9 8 7 7 6 9 10 7 4 4 4 3 2 1 2 1 2 1 2 2 5 7 7 8 5 7 12 18 22 25 25 26 27
11 10 10 9 8 5 10 11 11 9 10 11 10 9 10 15 13 14 14 9 5 3 3 2 2 1 2 2 2 4 6 8 5 3 5 11 13 10 17 19 24 26 26
8 8 6 8 8 7 15 14 13 9 9 10 10 10 7 7 8 7 10 9 7 6 3 3 2 1 2 1 4 9 8 8 9 10 10 12 8 10 16 19 24 25 22
8 8 8 9 8 7 14 15 16 11 10 10 9 9 9 8 6 6 5 5 4 3 2 1 1 4 5 7 7 8 10 11 10 10 9 9 8 10 11 17 21 25 22
8 8 8 9 10 10 18 18 15 11 11 10 8 8 8 8 9 8 5 4 3 4 5 6 8 10 13 13 13 6 7 7 10 9 4 6 8 9 8 9 15 18 18
8 8 8 8 12 11 16 17 13 8 10 8 9 9 11 7 9 9 5 4 3 3 4 6 6 9 10 10 11 8 6 7 8 8 0 3 8 5 5 1 4 6 6
Wind_Direction
135 124 125 124 118 127 122 119 123 131 132 139 143 139 142 146 150 150 153 153 150 152 153 147 149 147 138 130 127 123 119 114 108 104 102 91 86 77 70 66 62 54 41
130 125 124 109 138 134 129 145 128 130 143 146 145 145 150 160 162 167 172 170 167 166 164 162 158 159 152 145 143 147 144 130 121 116 110 102 97 88 79 64 51 44 37
137 133 113 156 147 133 157 114 116 128 136 135 141 158 166 170 174 181 187 185 182 178 175 177 176 177 177 171 171 171 169 159 146 137 128 111 104 94 77 54 40 34 29
121 129 158 167 145 158 170 127 132 120 112 131 143 168 181 174 185 192 195 198 195 191 191 192 192 196 195 198 193 193 188 182 172 162 152 135 124 116 94 59 28 19 12
142 158 166 168 164 168 187 129 112 127 142 150 157 161 166 186 210 217 211 208 208 203 202 203 203 209 210 205 204 205 205 199 192 185 172 162 157 149 140 94 13 4 355
158 171 164 161 169 176 166 114 141 141 148 165 142 171 192 212 216 219 221 219 217 214 214 211 212 215 213 203 214 219 221 214 208 204 197 195 189 180 173 179 327 334 330
165 176 169 174 185 178 174 155 155 164 144 149 105 33 287 230 231 223 223 231 225 219 217 217 217 215 210 213 215 228 234 228 220 220 218 217 215 209 202 202 216 241 278
185 180 184 183 190 157 160 178 167 134 157 173 142 112 267 271 233 222 214 219 225 223 221 225 221 221 219 221 224 226 235 238 236 235 233 232 224 223 222 219 224 232 247
183 194 200 179 177 172 189 188 181 177 179 185 206 150 150 233 330 47 223 214 215 214 224 219 227 233 234 233 233 236 238 240 245 247 245 238 231 227 228 229 229 235 245
198 201 197 202 176 172 199 205 195 185 148 171 203 218 114 173 183 311 303 258 201 230 200 220 226 235 234 236 240 244 254 252 254 254 251 252 240 234 237 236 237 238 244
199 207 202 194 171 188 203 199 180 189 200 165 174 156 161 189 96 168 267 248 257 220 230 221 229 238 232 234 240 250 252 262 264 259 255 257 258 245 244 250 249 248 246
207 227 221 204 198 194 202 206 208 202 210 204 190 180 188 176 187 184 201 231 185 214 240 221 221 238 245 243 248 254 269 279 278 271 260 256 256 253 251 251 252 257 258
180 198 197 208 202 209 210 205 203 211 196 206 212 215 202 204 161 179 154 177 224 181 300 247 193 186 190 212 240 238 268 281 281 277 269 263 258 256 257 261 262 263 264
197 190 203 202 208 208 205 200 192 221 213 222 211 214 213 204 170 164 170 147 175 224 219 237 256 193 179 256 268 280 283 290 290 289 283 272 264 261 261 262 265 264 266
209 205 205 206 197 198 180 178 201 206 194 206 221 203 188 190 174 147 149 161 163 187 222 270 241 263 281 309 302 298 294 295 301 297 291 281 267 259 257 257 258 262 265
203 202 213 199 205 196 188 194 214 215 208 196 191 184 166 148 142 144 159 158 153 155 204 202 228 249 314 321 322 322 317 318 313 308 301 293 282 273 268 264 262 262 266
201 212 213 217 233 229 201 191 198 190 199 181 173 173 166 146 162 154 152 146 165 157 178 258 244 23 313 351 330 330 330 325 316 314 305 290 285 279 274 272 268 264 258
205 218 224 233 228 232 174 174 179 194 193 193 180 163 167 160 158 148 158 160 181 166 159 194 254 289 237 316 317 326 326 319 318 310 306 300 294 286 283 279 272 267 259
211 219 211 204 207 204 184 188 185 201 195 197 173 170 160 156 151 152 154 142 136 100 97 137 204 310 274 302 308 299 305 307 317 317 312 308 302 304 300 293 283 270 262
205 211 202 196 188 178 179 166 185 187 170 170 158 150 146 152 145 140 129 119 122 114 111 102 198 252 247 301 339 312 325 323 317 311 301 294 296 303 301 302 298 288 274
213 210 199 188 184 192 181 179 172 162 150 143 131 115 94 97 101 108 126 125 138 115 122 129 236 255 270 327 325 313 309 314 305 273 289 293 314 306 297 299 299 295 294
201 183 183 173 174 179 159 167 154 156 149 141 116 100 108 100 95 102 105 108 112 135 145 174 210 235 277 276 293 325 315 322 325 256 324 302 294 287 287 287 287 290 291
171 173 163 158 169 167 151 144 134 139 131 122 125 120 110 107 106 110 104 103 96 99 137 165 203 230 287 301 308 313 305 293 279 289 292 291 290 281 287 281 283 281 275
166 168 165 157 148 136 130 127 116 114 103 105 115 116 119 122 131 134 121 120 119 119 114 111 231 273 255 272 268 289 292 288 283 278 257 278 290 287 296 290 280 275 270
150 151 148 145 133 132 128 123 115 109 106 103 103 108 120 124 125 134 130 128 112 92 34 4 342 324 313 312 309 313 286 296 295 295 256 260 283 290 300 294 291 284 268
135 122 110 115 122 117 118 115 116 119 118 119 111 111 119 125 136 140 129 116 86 53 12 349 337 330 326 315 317 313 307 299 302 306 354 241 288 293 299 267 303 321 301